Bewolking Meer informatie Parkstad Weather Satellite


Neerslagradar Meer informatie Parkstad Rain Snow Radar


Onweersbuien Meer informatie Parkstad Lighntning


24/7 Weercamera Meer informatie Parkstad Weathercam


Natuurbrandrisico
CBI





Het weer levert geen direct gevaar op in Parkstad.    Er zijn geen waarschuwingen afgegeven voor Parkstad (045)

Select another period ( hide this area )

Eenheden Periode Custom range Directly to
Metrisch Engels Beide
Dagelijkse Wekelijkse Maandelijkse Jaarlijkse
use both date-selectors for a custom range
previous Dag
With this date
Dagelijkse Samenvatting Zaterdag 31 juli 2021
Tijd Temp. ( °C ) Dew pt. ( °C ) Wind ( km/h ) van Windvlaag ( km/h ) Luchtdruk ( hPa ) Humid.( % ) Rainrate ( cm ) Zonneschijn ( W/m2 )
Hoog17,5 13,1 37,0 WZW ( 1893/3273 ) 39,0 1008,1 82 - 512
Gemiddeld16,1 11,2 26,4 WZW #72/124 29,7 1006,9 73 - 160 #51/124
Laag15,2 9,6 14,0   19,0 1006,4 59 -  
Dagelijkse Tabular details for Zaterdag 31 juli 2021
Tijd Temp. ( °C ) Dew pt. ( °C ) Wind ( km/h ) van Windvlaag ( km/h ) Luchtdruk ( hPa ) Humid.( % ) Rainrate ( cm ) Zonneschijn ( W/m2 )
00:04 17,5 9,6 31,0 WZW 32,0 1006,4 59 - -
00:09 17,5 9,6 34,0 WZW 35,0 1006,4 59 - -
00:14 17,5 9,6 32,0 WZW 37,0 1006,4 59 - -
00:19 17,5 9,9 35,0 WZW 35,0 1006,4 60 - -
00:24 17,5 9,9 37,0 ZW 37,0 1006,4 60 - -
00:29 17,4 9,8 29,0 WZW 31,0 1006,4 60 - -
00:34 17,4 9,8 32,0 WZW 32,0 1006,4 60 - -
00:39 17,3 9,9 35,0 WZW 35,0 1006,4 61 - -
00:44 17,3 9,9 31,0 WZW 32,0 1006,4 61 - -
00:49 17,1 10,0 35,0 WZW 35,0 1006,4 62 - -
00:54 17,0 10,0 26,0 WZW 26,0 1006,4 63 - -
00:59 16,9 10,0 21,0 WZW 23,0 1006,4 63 - -
01:04 16,8 10,1 21,0 WZW 26,0 1006,4 64 - -
01:09 16,7 10,3 23,0 WZW 24,0 1006,4 65 - -
01:14 16,7 10,3 20,0 WZW 19,0 1006,4 65 - -
01:19 16,6 10,2 24,0 ZW 24,0 1006,4 65 - -
01:24 16,4 10,3 23,0 ZW 31,0 1006,4 66 - -
01:29 16,4 10,3 29,0 WZW 29,0 1006,8 66 - -
01:34 16,4 10,5 21,0 WZW 31,0 1006,8 67 - -
01:39 16,4 10,5 21,0 WZW 23,0 1006,8 67 - -
01:44 16,4 10,5 20,0 WZW 26,0 1006,8 67 - -
01:49 16,4 10,5 21,0 WZW 21,0 1006,8 67 - -
01:54 16,4 10,5 26,0 WZW 27,0 1006,8 67 - -
01:59 16,3 10,4 24,0 WZW 24,0 1006,8 67 - -
02:04 16,3 10,4 26,0 ZW 34,0 1006,4 67 - -
02:09 16,3 10,6 29,0 ZW 29,0 1006,4 68 - -
02:14 16,3 10,6 26,0 WZW 34,0 1006,4 68 - -
02:19 16,3 10,6 24,0 WZW 27,0 1006,4 68 - -
02:24 16,2 10,5 31,0 ZW 32,0 1006,4 68 - -
02:29 16,2 10,5 21,0 ZW 23,0 1006,4 68 - -
02:34 16,1 10,6 29,0 WZW 32,0 1006,4 69 - -
02:39 16,1 10,6 27,0 ZW 31,0 1006,4 69 - -
02:44 16,1 10,6 27,0 WZW 31,0 1006,8 69 - -
02:49 16,1 10,6 31,0 ZW 31,0 1006,8 69 - -
02:54 16,2 10,7 26,0 ZW 31,0 1006,8 69 - -
02:59 16,2 10,7 29,0 WZW 32,0 1006,8 69 - -
03:04 16,3 10,8 23,0 WZW 32,0 1006,8 69 - -
03:09 16,3 10,8 32,0 ZW 32,0 1006,8 69 - -
03:14 16,3 10,6 24,0 WZW 32,0 1006,8 68 - -
03:19 16,2 10,7 26,0 ZW 27,0 1006,8 69 - -
03:24 16,2 10,5 23,0 ZW 27,0 1006,8 68 - -
03:29 16,2 10,5 24,0 WZW 24,0 1006,8 68 - -
03:34 16,2 10,5 27,0 ZW 39,0 1006,4 68 - -
03:39 16,2 10,5 29,0 WZW 29,0 1006,4 68 - -
03:44 16,2 10,5 23,0 ZW 39,0 1006,8 68 - -
03:49 16,2 10,5 31,0 ZW 31,0 1006,8 68 - -
03:54 16,2 10,5 24,0 WZW 29,0 1006,8 68 - -
03:59 16,2 10,5 26,0 WZW 31,0 1006,8 68 - -
04:04 16,1 10,6 24,0 WZW 26,0 1006,4 69 - -
04:09 16,1 10,6 23,0 WZW 29,0 1006,4 69 - -
04:14 16,1 10,6 26,0 WZW 27,0 1006,8 69 - -
04:19 16,1 10,6 23,0 WZW 23,0 1006,8 69 - -
04:24 16,1 10,6 29,0 ZW 29,0 1006,8 69 - -
04:29 16,1 10,8 34,0 WZW 37,0 1006,8 70 - -
04:34 16,1 10,8 35,0 ZW 35,0 1006,8 70 - -
04:39 16,1 10,8 37,0 ZW 37,0 1006,8 70 - -
04:44 16,1 10,8 32,0 WZW 34,0 1006,8 70 - -
04:49 16,1 10,8 26,0 WZW 26,0 1006,8 70 - -
04:54 16,1 10,8 27,0 WZW 34,0 1006,8 70 - -
04:59 15,9 11,1 20,0 WZW 24,0 1006,8 72 - -
05:04 15,9 11,8 29,0 WZW 29,0 1006,8 77 - -
05:09 15,8 12,1 18,0 ZW 24,0 1006,8 80 - -
05:14 15,4 12,1 24,0 WZW 27,0 1006,8 81 - -
05:19 15,2 12,0 21,0 WZW 24,0 1006,4 81 - -
05:24 15,3 11,8 27,0 WZW 29,0 1006,4 80 - -
05:29 15,3 11,5 23,0 WZW 27,0 1006,4 78 - -
05:34 15,3 11,5 29,0 ZW 29,0 1006,4 78 - -
05:39 15,4 11,4 31,0 WZW 31,0 1006,4 77 - -
05:44 15,5 11,5 29,0 WZW 31,0 1006,4 77 - -
05:49 15,5 11,5 24,0 WZW 24,0 1006,4 77 - -
05:54 15,5 11,5 24,0 ZW 29,0 1006,4 77 - -
05:59 15,5 11,5 27,0 WZW 29,0 1006,4 77 - -
06:04 15,5 11,3 29,0 ZW 34,0 1006,4 76 - -
06:09 15,4 11,4 23,0 ZW 23,0 1006,4 77 - 7
06:14 15,4 11,4 23,0 WZW 34,0 1006,4 77 - 7
06:19 15,4 11,4 24,0 ZW 24,0 1006,4 77 - 11
06:24 15,3 11,3 32,0 ZW 32,0 1006,4 77 - 12
06:29 15,3 11,5 26,0 WZW 26,0 1006,4 78 - 14
06:34 15,3 11,5 21,0 ZW 29,0 1006,4 78 - 12
06:39 15,3 11,5 26,0 WZW 29,0 1006,4 78 - 11
06:44 15,3 11,5 24,0 WZW 24,0 1006,8 78 - 7
06:49 15,3 11,5 34,0 ZW 34,0 1006,8 78 - 11
06:54 15,3 11,5 26,0 ZW 31,0 1006,8 78 - 19
06:59 15,3 11,5 24,0 WZW 34,0 1006,8 78 - 28
07:04 15,3 11,7 21,0 WZW 29,0 1006,8 79 - 26
07:09 15,3 11,7 23,0 WZW 29,0 1006,8 79 - 23
07:14 15,3 11,7 24,0 ZW 29,0 1007,1 79 - 23
07:19 15,3 11,7 26,0 WZW 31,0 1007,1 79 - 26
07:24 15,3 11,7 24,0 WZW 24,0 1007,1 79 - 26
07:29 15,3 11,7 31,0 WZW 31,0 1007,1 79 - 60
07:34 15,3 11,7 26,0 ZW 31,0 1007,1 79 - 109
07:39 15,3 11,7 21,0 ZW 31,0 1007,1 79 - 98
07:44 15,3 11,7 14,0 ZW 31,0 1007,5 79 - 67
07:49 15,3 11,7 24,0 ZW 24,0 1007,5 79 - 88
07:54 15,3 11,9 26,0 WZW 26,0 1007,5 80 - 93
07:59 15,3 11,9 23,0 WZW 26,0 1007,5 80 - 72
08:04 15,3 11,9 21,0 ZW 23,0 1007,5 80 - 74
08:09 15,4 12,0 20,0 WZW 26,0 1007,5 80 - 84
08:14 15,4 12,0 32,0 ZW 32,0 1007,5 80 - 121
08:19 15,5 12,1 23,0 ZW 32,0 1007,5 80 - 132
08:24 15,5 11,9 26,0 WZW 32,0 1007,5 79 - 132
08:29 15,6 12,0 20,0 ZW 32,0 1007,5 79 - 151
08:34 15,7 12,1 27,0 ZW 27,0 1007,5 79 - 146
08:39 15,8 12,2 26,0 ZW 29,0 1007,5 79 - 174
08:44 15,8 12,0 27,0 ZW 29,0 1007,5 78 - 174
08:49 15,8 12,0 24,0 ZW 27,0 1007,5 78 - 132
08:54 15,8 12,0 23,0 ZW 27,0 1007,5 78 - 186
08:59 15,8 12,0 26,0 ZW 27,0 1007,5 78 - 207
09:04 15,9 12,1 21,0 ZW 26,0 1007,5 78 - 383
09:09 16,2 12,3 31,0 ZW 31,0 1007,5 78 - 404
09:14 16,6 12,4 23,0 WZW 31,0 1007,5 77 - 424
09:19 16,9 12,4 27,0 ZW 31,0 1007,5 76 - 508
09:24 17,1 12,4 27,0 WZW 31,0 1007,5 75 - 287
09:29 17,1 12,4 27,0 WZW 37,0 1007,8 73 - 332
09:34 17,0 12,3 27,0 WZW 32,0 1007,8 73 - 297
09:39 17,0 12,3 34,0 WZW 34,0 1007,8 73 - 269
09:44 16,9 12,3 29,0 WZW 32,0 1008,1 75 - 359
09:49 16,8 12,6 37,0 WZW 37,0 1008,1 77 - 359
09:54 16,7 12,9 29,0 ZW 29,0 1008,1 79 - 294
09:59 16,4 12,8 34,0 ZW 37,0 1008,1 80 - 214
10:04 16,1 13,0 23,0 ZW 37,0 1008,1 82 - 214
10:09 16,1 13,0 24,0 WZW 26,0 1008,1 82 - 236
10:14 16,2 13,0 32,0 ZW 32,0 1008,1 82 - 512
10:19 16,6 13,1 27,0 ZW 27,0 1008,1 81 - 512
Dagelijkse Samenvatting Zaterdag 31 juli 2021
Tijd Temp. ( °C ) Dew pt. ( °C ) Wind ( km/h ) van Windvlaag ( km/h ) Luchtdruk ( hPa ) Humid.( % ) Rainrate ( cm ) Zonneschijn ( W/m2 )
Hoog17,5 13,1 37,0 WZW ( 1893/3273 ) 39,0 1008,1 82 - 512
Gemiddeld16,1 11,2 26,4 WZW #72/124 29,7 1006,9 73 - 160 #51/124
Laag15,2 9,6 14,0   19,0 1006,4 59 -  
Dagelijkse Tabular details for Zaterdag 31 juli 2021
Tijd Temp. ( °C ) Dew pt. ( °C ) Wind ( km/h ) van Windvlaag ( km/h ) Luchtdruk ( hPa ) Humid.( % ) Rainrate ( cm ) Zonneschijn ( W/m2 )
00:04 17,5 9,6 31,0 WZW 32,0 1006,4 59 - -
00:09 17,5 9,6 34,0 WZW 35,0 1006,4 59 - -
00:14 17,5 9,6 32,0 WZW 37,0 1006,4 59 - -
00:19 17,5 9,9 35,0 WZW 35,0 1006,4 60 - -
00:24 17,5 9,9 37,0 ZW 37,0 1006,4 60 - -
00:29 17,4 9,8 29,0 WZW 31,0 1006,4 60 - -
00:34 17,4 9,8 32,0 WZW 32,0 1006,4 60 - -
00:39 17,3 9,9 35,0 WZW 35,0 1006,4 61 - -
00:44 17,3 9,9 31,0 WZW 32,0 1006,4 61 - -
00:49 17,1 10,0 35,0 WZW 35,0 1006,4 62 - -
00:54 17,0 10,0 26,0 WZW 26,0 1006,4 63 - -
00:59 16,9 10,0 21,0 WZW 23,0 1006,4 63 - -
01:04 16,8 10,1 21,0 WZW 26,0 1006,4 64 - -
01:09 16,7 10,3 23,0 WZW 24,0 1006,4 65 - -
01:14 16,7 10,3 20,0 WZW 19,0 1006,4 65 - -
01:19 16,6 10,2 24,0 ZW 24,0 1006,4 65 - -
01:24 16,4 10,3 23,0 ZW 31,0 1006,4 66 - -
01:29 16,4 10,3 29,0 WZW 29,0 1006,8 66 - -
01:34 16,4 10,5 21,0 WZW 31,0 1006,8 67 - -
01:39 16,4 10,5 21,0 WZW 23,0 1006,8 67 - -
01:44 16,4 10,5 20,0 WZW 26,0 1006,8 67 - -
01:49 16,4 10,5 21,0 WZW 21,0 1006,8 67 - -
01:54 16,4 10,5 26,0 WZW 27,0 1006,8 67 - -
01:59 16,3 10,4 24,0 WZW 24,0 1006,8 67 - -
02:04 16,3 10,4 26,0 ZW 34,0 1006,4 67 - -
02:09 16,3 10,6 29,0 ZW 29,0 1006,4 68 - -
02:14 16,3 10,6 26,0 WZW 34,0 1006,4 68 - -
02:19 16,3 10,6 24,0 WZW 27,0 1006,4 68 - -
02:24 16,2 10,5 31,0 ZW 32,0 1006,4 68 - -
02:29 16,2 10,5 21,0 ZW 23,0 1006,4 68 - -
02:34 16,1 10,6 29,0 WZW 32,0 1006,4 69 - -
02:39 16,1 10,6 27,0 ZW 31,0 1006,4 69 - -
02:44 16,1 10,6 27,0 WZW 31,0 1006,8 69 - -
02:49 16,1 10,6 31,0 ZW 31,0 1006,8 69 - -
02:54 16,2 10,7 26,0 ZW 31,0 1006,8 69 - -
02:59 16,2 10,7 29,0 WZW 32,0 1006,8 69 - -
03:04 16,3 10,8 23,0 WZW 32,0 1006,8 69 - -
03:09 16,3 10,8 32,0 ZW 32,0 1006,8 69 - -
03:14 16,3 10,6 24,0 WZW 32,0 1006,8 68 - -
03:19 16,2 10,7 26,0 ZW 27,0 1006,8 69 - -
03:24 16,2 10,5 23,0 ZW 27,0 1006,8 68 - -
03:29 16,2 10,5 24,0 WZW 24,0 1006,8 68 - -
03:34 16,2 10,5 27,0 ZW 39,0 1006,4 68 - -
03:39 16,2 10,5 29,0 WZW 29,0 1006,4 68 - -
03:44 16,2 10,5 23,0 ZW 39,0 1006,8 68 - -
03:49 16,2 10,5 31,0 ZW 31,0 1006,8 68 - -
03:54 16,2 10,5 24,0 WZW 29,0 1006,8 68 - -
03:59 16,2 10,5 26,0 WZW 31,0 1006,8 68 - -
04:04 16,1 10,6 24,0 WZW 26,0 1006,4 69 - -
04:09 16,1 10,6 23,0 WZW 29,0 1006,4 69 - -
04:14 16,1 10,6 26,0 WZW 27,0 1006,8 69 - -
04:19 16,1 10,6 23,0 WZW 23,0 1006,8 69 - -
04:24 16,1 10,6 29,0 ZW 29,0 1006,8 69 - -
04:29 16,1 10,8 34,0 WZW 37,0 1006,8 70 - -
04:34 16,1 10,8 35,0 ZW 35,0 1006,8 70 - -
04:39 16,1 10,8 37,0 ZW 37,0 1006,8 70 - -
04:44 16,1 10,8 32,0 WZW 34,0 1006,8 70 - -
04:49 16,1 10,8 26,0 WZW 26,0 1006,8 70 - -
04:54 16,1 10,8 27,0 WZW 34,0 1006,8 70 - -
04:59 15,9 11,1 20,0 WZW 24,0 1006,8 72 - -
05:04 15,9 11,8 29,0 WZW 29,0 1006,8 77 - -
05:09 15,8 12,1 18,0 ZW 24,0 1006,8 80 - -
05:14 15,4 12,1 24,0 WZW 27,0 1006,8 81 - -
05:19 15,2 12,0 21,0 WZW 24,0 1006,4 81 - -
05:24 15,3 11,8 27,0 WZW 29,0 1006,4 80 - -
05:29 15,3 11,5 23,0 WZW 27,0 1006,4 78 - -
05:34 15,3 11,5 29,0 ZW 29,0 1006,4 78 - -
05:39 15,4 11,4 31,0 WZW 31,0 1006,4 77 - -
05:44 15,5 11,5 29,0 WZW 31,0 1006,4 77 - -
05:49 15,5 11,5 24,0 WZW 24,0 1006,4 77 - -
05:54 15,5 11,5 24,0 ZW 29,0 1006,4 77 - -
05:59 15,5 11,5 27,0 WZW 29,0 1006,4 77 - -
06:04 15,5 11,3 29,0 ZW 34,0 1006,4 76 - -
06:09 15,4 11,4 23,0 ZW 23,0 1006,4 77 - 7
06:14 15,4 11,4 23,0 WZW 34,0 1006,4 77 - 7
06:19 15,4 11,4 24,0 ZW 24,0 1006,4 77 - 11
06:24 15,3 11,3 32,0 ZW 32,0 1006,4 77 - 12
06:29 15,3 11,5 26,0 WZW 26,0 1006,4 78 - 14
06:34 15,3 11,5 21,0 ZW 29,0 1006,4 78 - 12
06:39 15,3 11,5 26,0 WZW 29,0 1006,4 78 - 11
06:44 15,3 11,5 24,0 WZW 24,0 1006,8 78 - 7
06:49 15,3 11,5 34,0 ZW 34,0 1006,8 78 - 11
06:54 15,3 11,5 26,0 ZW 31,0 1006,8 78 - 19
06:59 15,3 11,5 24,0 WZW 34,0 1006,8 78 - 28
07:04 15,3 11,7 21,0 WZW 29,0 1006,8 79 - 26
07:09 15,3 11,7 23,0 WZW 29,0 1006,8 79 - 23
07:14 15,3 11,7 24,0 ZW 29,0 1007,1 79 - 23
07:19 15,3 11,7 26,0 WZW 31,0 1007,1 79 - 26
07:24 15,3 11,7 24,0 WZW 24,0 1007,1 79 - 26
07:29 15,3 11,7 31,0 WZW 31,0 1007,1 79 - 60
07:34 15,3 11,7 26,0 ZW 31,0 1007,1 79 - 109
07:39 15,3 11,7 21,0 ZW 31,0 1007,1 79 - 98
07:44 15,3 11,7 14,0 ZW 31,0 1007,5 79 - 67
07:49 15,3 11,7 24,0 ZW 24,0 1007,5 79 - 88
07:54 15,3 11,9 26,0 WZW 26,0 1007,5 80 - 93
07:59 15,3 11,9 23,0 WZW 26,0 1007,5 80 - 72
08:04 15,3 11,9 21,0 ZW 23,0 1007,5 80 - 74
08:09 15,4 12,0 20,0 WZW 26,0 1007,5 80 - 84
08:14 15,4 12,0 32,0 ZW 32,0 1007,5 80 - 121
08:19 15,5 12,1 23,0 ZW 32,0 1007,5 80 - 132
08:24 15,5 11,9 26,0 WZW 32,0 1007,5 79 - 132
08:29 15,6 12,0 20,0 ZW 32,0 1007,5 79 - 151
08:34 15,7 12,1 27,0 ZW 27,0 1007,5 79 - 146
08:39 15,8 12,2 26,0 ZW 29,0 1007,5 79 - 174
08:44 15,8 12,0 27,0 ZW 29,0 1007,5 78 - 174
08:49 15,8 12,0 24,0 ZW 27,0 1007,5 78 - 132
08:54 15,8 12,0 23,0 ZW 27,0 1007,5 78 - 186
08:59 15,8 12,0 26,0 ZW 27,0 1007,5 78 - 207
09:04 15,9 12,1 21,0 ZW 26,0 1007,5 78 - 383
09:09 16,2 12,3 31,0 ZW 31,0 1007,5 78 - 404
09:14 16,6 12,4 23,0 WZW 31,0 1007,5 77 - 424
09:19 16,9 12,4 27,0 ZW 31,0 1007,5 76 - 508
09:24 17,1 12,4 27,0 WZW 31,0 1007,5 75 - 287
09:29 17,1 12,4 27,0 WZW 37,0 1007,8 73 - 332
09:34 17,0 12,3 27,0 WZW 32,0 1007,8 73 - 297
09:39 17,0 12,3 34,0 WZW 34,0 1007,8 73 - 269
09:44 16,9 12,3 29,0 WZW 32,0 1008,1 75 - 359
09:49 16,8 12,6 37,0 WZW 37,0 1008,1 77 - 359
09:54 16,7 12,9 29,0 ZW 29,0 1008,1 79 - 294
09:59 16,4 12,8 34,0 ZW 37,0 1008,1 80 - 214
10:04 16,1 13,0 23,0 ZW 37,0 1008,1 82 - 214
10:09 16,1 13,0 24,0 WZW 26,0 1008,1 82 - 236
10:14 16,2 13,0 32,0 ZW 32,0 1008,1 82 - 512
10:19 16,6 13,1 27,0 ZW 27,0 1008,1 81 - 512

Download your copy of this data-set  here

U vindt ons ook hier:

Het Weer Aktueel

WOW Nederland KNMI

Vereniging voor Weerkunde en Klimatologie

UK Met Office Weather Observation Website (WOW)

WeatherCloud

Weather Underground

Awekas

MeteoMap.Cloud

HAMweather, WeatherForYou, PWS Weather

Citizen Weather Observer Program (CWOP)

Apparatuur in gebruik:

Hardwareleverancier
Weerhuisje

Weerstation
Vantage Pro2+ UV

Weercomputer's
alix3d2 & wl330n

Weerprogramma's
Smartbedded

Satelliet NOAA's
WRX137 & KX137

Satelliet Eumetsat
Ayecka SR1 & Triax

Bliksemdetectie
Boltek StormTracker

Webleverancier
F-Service

Weerhuisje

Vantage Pro2+ UV

alix3d2 & wl330n

Smartbedded

WRX137 & KX137

Ayecka SR1 & Triax

Boltek StormTracker

F-Service